Weather History for Jonesville, VA

Change the Weather History Date:

Tuesday, February 5, 2013

  Actual Average (KLOZ) Record (KLOZ)
Temperature  
Mean Temperature 40 °F 37 °F  
Max Temperature 51 °F 47 °F 70 °F (2008)
Min Temperature 30 °F 28 °F 3 °F (1965)
Degree Days  
Heating Degree Days 24 28  
Month to date heating degree days 140  
Since 1 July heating degree days 2703  
Cooling Degree Days 0 0  
Month to date cooling degree days 0  
Year to date cooling degree days 0  
Moisture  
Dew Point 33 °F    
Average Humidity 82    
Maximum Humidity 100    
Minimum Humidity 50    
Precipitation  
Precipitation 0.00 in 0.13 in 2.59 in (2004)
Month to date precipitation 0.64  
Year to date precipitation 4.18  
Sea Level Pressure  
Sea Level Pressure 29.96 in    
Wind  
Wind Speed 2 mph (SW)    
Max Wind Speed 13 mph    
Max Gust Speed 16 mph    
Visibility 10 miles    
Events      
T = Trace of Precipitation, MM = Missing Value Source: NWS Daily Summary

Daily Weather History Graph

Daily Weather History Graph

Search for Another Location

Airport:

Trip Planner

Search our weather history database for the weather conditions in past years. The results will help you decide how hot, cold, wet, or windy it might be!

Date:

Astronomy

Feb. 05, 2013 Rise Set
Actual Time 7:31 AM EST 6:03 PM EST
Civil Twilight 7:04 AM EST 6:30 PM EST
Nautical Twilight 6:33 AM EST 7:00 PM EST
Astronomical Twilight 6:03 AM EST 7:31 PM EST
Moon 3:08 AM EST (2/5) 1:22 PM EST (2/5)
Length of Visible Light 11h 26m
Length of Day
10h 32m
Waning Crescent, 27% of the Moon is Illuminated
Feb 5
Waning Crescent
Feb 10
New
Feb 17
First Quarter
Feb 25
Full
Mar 4
Last Quarter

Hourly Weather History & Observations

Time (EST) Temp. Windchill Dew Point Humidity Pressure Visibility Wind Dir Wind Speed Gust Speed Precip Events Conditions
12:15 AM 32.0 °F - 30.2 °F 93% 29.95 in 10.0 mi Calm Calm - N/A   Overcast
12:35 AM 32.0 °F - 30.2 °F 93% 29.96 in 10.0 mi Calm Calm - N/A   Overcast
12:55 AM 32.0 °F - 30.2 °F 93% 29.95 in 10.0 mi Calm Calm - N/A   Overcast
1:15 AM 33.8 °F - 32.0 °F 93% 29.95 in 10.0 mi Calm Calm - N/A   Overcast
1:35 AM 33.8 °F - 32.0 °F 93% 29.94 in 10.0 mi Calm Calm - N/A   Overcast
1:55 AM 33.8 °F - 32.0 °F 93% 29.94 in 10.0 mi Calm Calm - N/A   Overcast
2:15 AM 33.8 °F - 30.2 °F 87% 29.94 in 10.0 mi Calm Calm - N/A   Overcast
2:35 AM 33.8 °F - 32.0 °F 93% 29.94 in 10.0 mi Calm Calm - N/A   Overcast
2:55 AM 33.8 °F - 32.0 °F 93% 29.95 in 10.0 mi Calm Calm - N/A   Overcast
3:15 AM 33.8 °F - 32.0 °F 93% 29.94 in 10.0 mi Calm Calm - N/A   Overcast
3:35 AM 33.8 °F - 32.0 °F 93% 29.94 in 10.0 mi Calm Calm - N/A   Overcast
3:55 AM 33.8 °F - 32.0 °F 93% 29.94 in 10.0 mi Calm Calm - N/A   Overcast
4:15 AM 33.8 °F - 32.0 °F 93% 29.94 in 10.0 mi Calm Calm - N/A   Overcast
4:35 AM 33.8 °F - 32.0 °F 93% 29.94 in 10.0 mi Calm Calm - N/A   Overcast
4:55 AM 33.8 °F - 32.0 °F 93% 29.94 in 10.0 mi Calm Calm - N/A   Overcast
5:15 AM 33.8 °F - 32.0 °F 93% 29.94 in 10.0 mi Calm Calm - N/A   Overcast
5:35 AM 33.8 °F - 32.0 °F 93% 29.93 in 10.0 mi Calm Calm - N/A   Overcast
5:55 AM 33.8 °F - 32.0 °F 93% 29.93 in 10.0 mi Calm Calm - N/A   Overcast
6:15 AM 33.8 °F - 32.0 °F 93% 29.94 in 10.0 mi Calm Calm - N/A   Overcast
6:35 AM 33.8 °F - 32.0 °F 93% 29.95 in 10.0 mi Calm Calm - N/A   Overcast
6:55 AM 33.8 °F - 32.0 °F 93% 29.95 in 10.0 mi Calm Calm - N/A   Overcast
7:15 AM 33.8 °F - 32.0 °F 93% 29.95 in 10.0 mi Calm Calm - N/A   Overcast
7:55 AM 33.8 °F - 32.0 °F 93% 29.96 in 10.0 mi Calm Calm - N/A   Overcast
8:15 AM 33.8 °F - 32.0 °F 93% 29.97 in 10.0 mi Calm Calm - N/A   Overcast
8:35 AM 35.6 °F - 32.0 °F 87% 29.97 in 10.0 mi Calm Calm - N/A   Overcast
8:55 AM 35.6 °F - 32.0 °F 87% 29.98 in 10.0 mi Calm Calm - N/A   Overcast
9:15 AM 35.6 °F - 32.0 °F 87% 29.98 in 10.0 mi Calm Calm - N/A   Overcast
9:35 AM 35.6 °F - 32.0 °F 87% 29.99 in 10.0 mi Calm Calm - N/A   Overcast
9:55 AM 37.4 °F - 32.0 °F 81% 29.99 in 10.0 mi Calm Calm - N/A   Overcast
10:15 AM 39.2 °F - 32.0 °F 75% 29.99 in 10.0 mi Calm Calm - N/A   Overcast
10:35 AM 39.2 °F 35.9 °F 33.8 °F 81% 30.00 in 10.0 mi SW 4.6 mph - N/A   Overcast
10:55 AM 41.0 °F 38.0 °F 33.8 °F 76% 30.00 in 10.0 mi SW 4.6 mph - N/A   Overcast
11:15 AM 41.0 °F 38.0 °F 32.0 °F 70% 30.01 in 10.0 mi WSW 4.6 mph - N/A   Overcast
11:35 AM 41.0 °F 37.1 °F 33.8 °F 76% 30.00 in 10.0 mi WSW 5.8 mph - N/A   Overcast
11:55 AM 41.0 °F 39.0 °F 33.8 °F 76% 30.00 in 10.0 mi West 3.5 mph - N/A   Overcast
12:15 PM 42.8 °F 40.1 °F 35.6 °F 76% 30.00 in 10.0 mi West 4.6 mph - N/A   Overcast
12:35 PM 44.6 °F 43.1 °F 35.6 °F 71% 29.98 in 10.0 mi SW 3.5 mph - N/A   Overcast
12:55 PM 46.4 °F 41.9 °F 35.6 °F 66% 29.97 in 10.0 mi SW 9.2 mph - N/A   Overcast
1:15 PM 46.4 °F 42.4 °F 35.6 °F 66% 29.97 in 10.0 mi WSW 8.1 mph - N/A   Mostly Cloudy
1:35 PM 48.2 °F - 37.4 °F 66% 29.96 in 10.0 mi SW 9.2 mph - N/A   Mostly Cloudy
1:55 PM 48.2 °F - 35.6 °F 62% 29.96 in 10.0 mi WSW 12.7 mph - N/A   Mostly Cloudy
2:15 PM 50.0 °F - 35.6 °F 58% 29.95 in 10.0 mi SW 6.9 mph - N/A   Mostly Cloudy
2:35 PM 50.0 °F - 35.6 °F 58% 29.94 in 10.0 mi SW 6.9 mph - N/A   Partly Cloudy
2:55 PM 50.0 °F - 35.6 °F 58% 29.95 in 10.0 mi WSW 10.4 mph - N/A   Partly Cloudy
3:15 PM 50.0 °F - 35.6 °F 58% 29.95 in 10.0 mi SW 6.9 mph - N/A   Scattered Clouds
3:35 PM 51.8 °F - 35.6 °F 54% 29.95 in 10.0 mi West 5.8 mph - N/A   Mostly Cloudy
3:55 PM 51.8 °F - 35.6 °F 54% 29.94 in 10.0 mi SW 11.5 mph - N/A   Scattered Clouds
4:15 PM 51.8 °F - 35.6 °F 54% 29.94 in 10.0 mi SW 12.7 mph 16.1 mph N/A   Partly Cloudy
4:35 PM 51.8 °F - 35.6 °F 54% 29.94 in 10.0 mi SW 10.4 mph - N/A   Clear
4:55 PM 51.8 °F - 33.8 °F 50% 29.94 in 10.0 mi SW 10.4 mph - N/A   Clear
5:15 PM 51.8 °F - 33.8 °F 50% 29.94 in 10.0 mi SW 8.1 mph - N/A   Clear
5:35 PM 50.0 °F - 35.6 °F 58% 29.94 in 10.0 mi SW 6.9 mph - N/A   Clear
5:55 PM 50.0 °F - 35.6 °F 58% 29.94 in 10.0 mi SW 3.5 mph - N/A   Clear
6:15 PM 48.2 °F - 35.6 °F 62% 29.94 in 10.0 mi Calm Calm - N/A   Clear
6:35 PM 44.6 °F - 35.6 °F 71% 29.95 in 10.0 mi Calm Calm - N/A   Clear
6:55 PM 42.8 °F - 35.6 °F 76% 29.95 in 10.0 mi Calm Calm - N/A   Partly Cloudy
7:15 PM 39.2 °F - 35.6 °F 87% 29.96 in 10.0 mi Calm Calm - N/A   Scattered Clouds
7:35 PM 39.2 °F - 35.6 °F 87% 29.96 in 10.0 mi Calm Calm - N/A   Scattered Clouds
7:55 PM 37.4 °F - 33.8 °F 87% 29.97 in 10.0 mi Calm Calm - N/A   Partly Cloudy
8:15 PM 37.4 °F - 33.8 °F 87% 29.97 in 10.0 mi Calm Calm - N/A   Partly Cloudy
8:35 PM 35.6 °F - 33.8 °F 93% 29.98 in 10.0 mi Calm Calm - N/A   Clear
8:55 PM 35.6 °F - 32.0 °F 87% 29.98 in 10.0 mi Calm Calm - N/A   Clear
9:15 PM 32.0 °F - 32.0 °F 100% 29.98 in 10.0 mi Calm Calm - N/A   Clear
9:35 PM 32.0 °F - 32.0 °F 100% 29.99 in 10.0 mi Calm Calm - N/A   Clear
10:15 PM 32.0 °F - 32.0 °F 100% 30.00 in 10.0 mi Calm Calm - N/A   Clear
10:35 PM 32.0 °F - 32.0 °F 100% 30.01 in 10.0 mi Calm Calm - N/A   Clear
10:55 PM 32.0 °F - 32.0 °F 100% 30.01 in 10.0 mi Calm Calm - N/A   Clear
11:15 PM 30.2 °F - 30.2 °F 100% 30.02 in 8.0 mi Calm Calm - N/A   Clear
11:35 PM 30.2 °F - 30.2 °F 100% 30.02 in 9.0 mi Calm Calm - N/A   Clear
11:55 PM 30.2 °F - 30.2 °F 100% 30.03 in 10.0 mi Calm Calm - N/A   Clear